Regional Weather Roundup
Issued by NWS

Home | Current Version | Previous Version | Text Only | Print | Product List | Glossary Off
Versions: 1 2 3 4 5 6 7 8 9 10 11 12 13 14 15 16 17 18 19 20 21 22 23 24 25 26 27 28 29 30 31 32 33 34 35 36 37 38 39 40 41 42 43 44 45 46 47 48 49 50

634
ASUS43 KLOT 242308
RWRIL

ILLINOIS REGIONAL WEATHER ROUNDUP
NATIONAL WEATHER SERVICE CHICAGO/ROMEOVILLE IL
600 PM CDT FRI MAR 24 2017

NOTE: "FAIR" INDICATES FEW OR NO CLOUDS BELOW 12,000 FEET WITH NO
SIGNIFICANT WEATHER AND/OR OBSTRUCTIONS TO VISIBILITY.

* THESE STATIONS ARE NOT UNDER NWS QUALITY CONTROL. THEY ALSO MAY NOT
  REPORT WEATHER SUCH AS PRECIPITATION OR FOG.

ILZ001-002-007-009-015-016-024-250000-
NORTHWEST ILLINOIS

CITY           SKY/WX    TMP DP  RH WIND       PRES   REMARKS
MOLINE         CLOUDY    64  49  57 W13       29.91F
STERLING*      CLOUDY    69  46  43 W16G23    29.92R
SAVANNA*       LGT RAIN  63  51  64 N7        29.93F
$$

ILZ003-004-008-010-011-017-018-250000-
NORTH CENTRAL ILLINOIS

CITY           SKY/WX    TMP DP  RH WIND       PRES   REMARKS
ROCKFORD       CLOUDY    66  50  56 N18       29.96R
FREEPORT*      CLOUDY    60  49  67 N7        29.97R
ROCHELLE*      CLOUDY    70  44  39 W10       29.92S
DE KALB*       CLOUDY    72  44  36 W10       29.94R
PERU*          CLOUDY    70  47  44 NW8       29.92S
$$

ILZ005-006-012>014-019>023-250000-
NORTHEAST ILLINOIS

CITY           SKY/WX    TMP DP  RH WIND       PRES   REMARKS
CHICAGO-OHARE  CLOUDY    51  40  65 NE21G26   29.95R
CHICAGO-MIDWAY CLOUDY    76  45  33 W14G24    29.92R
AURORA         CLOUDY    73  44  35 W9        29.93R
LANSING*       MOSUNNY   73  56  55 SW17G28   29.93S
JOLIET*        CLOUDY    76  54  47 SW9G17    29.92S
WAUKEGAN       PTSUNNY   41  36  82 N18G25    29.98R HAZE
DUPAGE AIRPORT CLOUDY    73  45  36 W8        29.92R
KANKAKEE*      PTSUNNY   72  54  52 SW16G25   29.96R
WHEELING       CLOUDY    47  39  74 N15G23    29.99R
MORRIS*        CLOUDY    74  54  50 S13G18    29.91S
ROMEOVILLE*    CLOUDY    72  49  45 W7        29.92S
NORTHERLY ISL    N/A     46  39  76 N25         N/A
$$

LMZ740>746-250000-
SOUTHERN LAKE MICHIGAN

STATION/POSITION SKY/WX   TEMP    WIND        PRES    VSBY  WAVE
                          AIR SEA DIR/SP/G                  HT/PER
                          (F)     (DEG/KT/KT) (MB)    (MI)  (FT/S)
HARRISON CRIB                     340/ 27/ 30   N/A
BURNHAM HARBOR                    360/ 22/ 24   N/A
CALUMET HARBOR             76     220/  8/ 20 1012.5R
BURNS HARBOR               73     230/ 22/ 30 1013.5R
MICHIGAN CITY              74     190/ 18/ 26   N/A
$$

ILZ025>027-034>036-040-047-049-050-058-095>099-250000-
WEST-CENTRAL ILLINOIS

CITY           SKY/WX    TMP DP  RH WIND       PRES   REMARKS
QUINCY         LGT RAIN  60  56  86 W12       29.94R
GALESBURG*     CLOUDY    64  51  62 SW10      29.95R
MACOMB*        CLOUDY    62  53  73 W15       29.97S
JACKSONVILLE*  CLOUDY    73  51  46 SW8       29.93S
PITTSFIELD*    CLOUDY    65  55  70 NW7       29.95R
$$

ILZ028>032-037-038-041>044-048-051>054-059>061-250000-
CENTRAL ILLINOIS

CITY           SKY/WX    TMP DP  RH WIND       PRES   REMARKS
PONTIAC        MOSUNNY   73  56  55 S17G23    29.94S
BLOOMINGTON    PTSUNNY   71  56  58 S20       29.95R
DECATUR        PTSUNNY   71  55  56 S17       29.97S
PEORIA         CLOUDY    74  46  36 W5        29.92S
LACON*         CLOUDY    73  46  37 SW6       29.91R
LINCOLN*       MOSUNNY   75  56  52 S7        29.94S
SPRINGFIELD    MOSUNNY   77  50  38 SW13      29.93F
TAYLORVILLE    PTSUNNY   72  55  56 S17G23    29.96S
$$

ILZ033-039-045-046-055>057-062-063-250000-
EAST-CENTRAL ILLINOIS

CITY           SKY/WX    TMP DP  RH WIND       PRES   REMARKS
CHAMPAIGN      PTSUNNY   72  54  53 S28G35    29.98S
RANTOUL*       CLOUDY    74  56  54 SW16G26   29.97S
MATTOON        CLOUDY    70  56  61 S13       30.00F
PARIS*         MOSUNNY   70  57  62 S17G26    30.03S
$$

ILZ079-100>102-250000-
SOUTHWEST ILLINOIS

CITY           SKY/WX    TMP DP  RH WIND       PRES   REMARKS
ALTON          CLOUDY    72  54  53 S14       29.97R
BELLEVILLE     CLOUDY    72  58  60 S12       29.96S
CAHOKIA*       PTSUNNY   75  53  46 S14G23    29.95F
SPARTA*        CLOUDY    71  56  58 S13G22    30.00R
$$

ILZ064>066-069>071-074>076-080>082-084>086-088>090-092>094-250000-
SOUTH-CENTRAL ILLINOIS

CITY           SKY/WX    TMP DP  RH WIND       PRES   REMARKS
CARBONDALE     CLOUDY    71  57  61 S15G24    29.99F
CAIRO*         CLOUDY    71  57  62 SE15G25   30.01F
EFFINGHAM*     CLOUDY    71  57  61 S9G16     30.02F
MARION         PTSUNNY   72  57  60 S14G25    30.01F
MT. VERNON     CLOUDY    71  57  61 S9        30.02S
CENTRALIA*     CLOUDY    71  59  65 S10       30.00S
SALEM*         PTSUNNY   73  56  55 S15G21    30.01S
METROPOLIS*    CLOUDY    72  56  57 SE9G16    30.04F
$$

ILZ067-068-072-073-078-083-087-091-250000-
SOUTHEAST ILLINOIS

CITY           SKY/WX    TMP DP  RH WIND       PRES   REMARKS
LAWRENCEVILLE  CLOUDY    71  55  56 S17       30.05F
FLORA*         CLOUDY    72  57  58 S15       30.02S
FAIRFIELD*     CLOUDY    70  57  63 S7        30.02S
HARRISBURG*    CLOUDY    71  57  62 S13G22    30.02F
ROBINSON*      CLOUDY    70  55  59 S16G22    30.05F
CARMI*         PTSUNNY   70  56  61 S17G23    30.02F
$$

ABBREVIATIONS USED IN REMARKS
   TC - TEMPERATURE IN CELSIUS
  WCI - WIND CHILL INDEX
   HX - HEAT INDEX
  VSB - VISIBILITY
$$





USA.gov is the U.S. government's official web portal to all federal, state and local government web resources and services.